Content
SEND FEEDBACK

Daily
Averages
Monthly
Summary
United States of America

RANCHO SAN DIEGO, CALIFORNIA


Home > North America > United States > California
Elevation: 165 meters     Latitude: 32 47N     Longitude: 116 56W

WEATHER
 
SELECT A DAY
Number of Records: 106,326;   Date Range: 1/1/95 - 7/7/14
 
SHARE

PRINT THIS DATA

[ ← Previous Day ]
WEATHER ALMANAC - 31 JANUARY, 2013
[ Next Day → ]
[ °F ]   °C
Weather ElementAverageHighLow
Temperature7.7 °C23 °C (12:47 pm)4 °C (4:35 am)
Dewpoint5.1 °C6 °C (8:35 pm)3 °C (12:47 pm)
Humidity85.3 %100 % (3:35 am)27 % (12:47 pm)
Barometer1022 hPa1024.4 hPa (12:35 am)1020.3 hPa (12:47 pm)
Wind Speed0.3 km/h5.6 km/h (1:35 am)
Weather ElementAverage
Visibility18.2 km
Wind DirectionNNE (19.7 °)

Weather ElementTotal
Precipitation---
Heating Degree Days4.8 (Base 18.3)
Growing Degree Days3.5 (Base 10)
Averaged from 31 records on 31 January, 2013
WEATHER CONDITIONS BREAKOUT
WIND DIRECTION BREAKOUT
WEATHER BY HOUR - 31 JANUARY, 2013
[ °F ]   °C
Local TimeTemperatureDewpointHumidityBarometerVisibilityWind DirectionWind SpeedGust SpeedPrecipitationEventsConditions
12:35 AM7 °C4 °C81 %1024.4 hPa16.1 kmCalmClear
12:55 AM6 °C4 °C87 %1024.4 hPa16.1 kmCalmClear
1:15 AM6 °C4 °C87 %1024 hPa16.1 kmCalmClear
1:35 AM6 °C5 °C93 %1023.7 hPa16.1 kmNW (310°)5.6 km/hClear
1:55 AM6 °C5 °C93 %1023.7 hPa16.1 kmCalmClear
2:15 AM6 °C5 °C93 %1023.4 hPa16.1 kmCalmClear
2:35 AM6 °C5 °C93 %1023 hPa16.1 kmCalmClear
2:55 AM6 °C5 °C93 %1023 hPa16.1 kmCalmClear
3:15 AM6 °C5 °C93 %1022.7 hPa16.1 kmCalmClear
3:35 AM5 °C5 °C100 %1022.7 hPa16.1 kmCalmClear
3:55 AM5 °C5 °C100 %1022.7 hPa16.1 kmCalmClear
4:15 AM5 °C5 °C100 %1022.4 hPa16.1 kmCalmClear
4:35 AM4 °C4 °C100 %1022.4 hPa16.1 kmCalmClear
4:55 AM4 °C4 °C100 %1022.4 hPa16.1 kmCalmClear
5:15 AM4 °C4 °C100 %1022.4 hPa16.1 kmCalmClear
6:47 AM4 °C4 °C100 %1022.4 hPa32.2 kmCalmPartly Cloudy
7:47 AM5 °C5 °C100 %1023 hPa32.2 kmCalmMostly Cloudy
8:47 AM8 °C5 °C81 %1023.7 hPa32.2 kmCalmScattered Clouds
12:47 PM23 °C3 °C27 %1020.3 hPa32.2 kmCalmMostly Cloudy
8:15 PM12 °C5 °C62 %1021 hPa16.1 kmCalmClear
8:35 PM12 °C6 °C67 %1021 hPa16.1 kmCalmClear
8:55 PM11 °C6 °C71 %1021 hPa16.1 kmCalmClear
9:15 PM11 °C6 °C71 %1021 hPa16.1 kmCalmClear
9:35 PM10 °C6 °C76 %1021 hPa16.1 kmCalmClear
9:55 PM10 °C6 °C76 %1020.7 hPa16.1 kmWNW (300°)5.6 km/hClear
10:15 PM10 °C6 °C76 %1020.7 hPa16.1 kmCalmClear
10:35 PM9 °C6 °C82 %1020.7 hPa16.1 kmCalmClear
10:55 PM9 °C6 °C82 %1021 hPa16.1 kmCalmClear
11:15 PM8 °C6 °C87 %1020.7 hPa16.1 kmCalmClear
11:35 PM8 °C6 °C87 %1020.7 hPa16.1 kmCalmClear
11:55 PM8 °C6 °C87 %1021 hPa16.1 kmCalmClear
Hourly data recorded from KSEE, located 0 kilometers away from Rancho San Diego, California







STORIES FROM OUR PARTNERS